Flag Weather past 2 weeks in Málaga, Spain

Now
70 °F

Passing clouds.


Feels Like: 70 °F
Forecast: 59 / 70 °F
Wind: 5 mph from Southeast

Location: Malaga / Aeropuerto

Current Time: Oct 31, 2014 at 5:39:10 PM

Latest Report: Oct 31, 2014 at 5:00 PM


Visibility: N/A

Pressure: 30.18 "Hg

Humidity: 78%

Dew point: 63 °F

Location of MálagaLocation

Historic Weather in Málaga — Graph

°F

Málaga temperature yesterday

Maximum temperature yesterday: 73 °F (at 12:00 PM)
Minimum temperature yesterday: 57 °F (at 6:30 AM)
Average temperature yesterday: 65 °F

Past Weeks' High & Low Weather Summary

 TemperatureHumidityPressure
High93 °F (Oct 22, 3:30 PM)100% (Oct 16, 10:30 PM)30.24 "Hg (Oct 16, 10:30 PM)
Low54 °F (Oct 24, 7:30 AM)16% (Oct 22, 4:30 PM)29.98 "Hg (Oct 28, 3:00 PM)
Average66 °F79%30.10 "Hg
* Reported Oct 16 5:00 PM — Oct 31 4:30 PM, Málaga, Weather by CustomWeather, © 2014

Note: Actual official high and low records may vary slightly from our data, if they occured in-between our weather recording intervals... More about our weather records

Advertising

Málaga weather history for previous 24 hours

 ConditionsComfort  
Time TempWeatherWind HumidityBarometerVisibility
4:30 PM
Oct 31
70 °FPassing clouds.5 mph78%30.18 "HgN/A
4:00 PM70 °FPassing clouds.7 mph78%30.18 "HgN/A
3:30 PM70 °FPassing clouds.5 mph78%30.18 "HgN/A
3:00 PM70 °FPassing clouds.7 mph78%30.18 "HgN/A
2:30 PM70 °FPassing clouds.7 mph73%30.18 "HgN/A
2:00 PM72 °FPassing clouds.7 mph69%30.21 "HgN/A
1:30 PM70 °FPassing clouds.6 mph69%30.21 "HgN/A
1:00 PM70 °FPassing clouds.7 mph69%30.21 "HgN/A
12:30 PM70 °FPassing clouds.6 mph69%30.21 "HgN/A
12:00 PM70 °FPassing clouds.6 mph69%30.24 "HgN/A
11:30 AM70 °FPassing clouds.6 mph64%30.21 "HgN/A
11:00 AM70 °FPassing clouds.No wind64%30.21 "HgN/A
10:30 AM66 °FPassing clouds.3 mph73%30.21 "HgN/A
10:00 AM63 °FSunny.7 mph77%30.21 "Hg10 mi
9:30 AM59 °FSunny.6 mph88%30.21 "Hg10 mi
9:00 AM57 °FSunny.8 mph88%30.21 "Hg10 mi
8:30 AM55 °FSunny.7 mph88%30.18 "Hg10 mi
8:00 AM59 °FSunny.9 mph82%30.18 "Hg10 mi
7:30 AM59 °FClear.9 mph82%30.18 "Hg10 mi
7:00 AM57 °FClear.10 mph88%30.18 "Hg10 mi
6:30 AM57 °FClear.10 mph88%30.15 "Hg10 mi
6:00 AM57 °FClear.10 mph82%30.15 "Hg10 mi
5:30 AM57 °FClear.10 mph82%30.15 "Hg10 mi
5:00 AM57 °FClear.10 mph88%30.15 "Hg10 mi
4:30 AM57 °FClear.10 mph88%30.15 "Hg10 mi
4:00 AM57 °FClear.10 mph88%30.15 "Hg10 mi
3:30 AM57 °FClear.7 mph88%30.18 "Hg10 mi
3:00 AM57 °FClear.8 mph88%30.18 "Hg10 mi
2:30 AM59 °FClear.7 mph82%30.18 "Hg10 mi
2:00 AM57 °FClear.7 mph88%30.18 "Hg10 mi
1:30 AM59 °FClear.8 mph82%30.18 "Hg10 mi
1:00 AM61 °FClear.8 mph83%30.18 "Hg10 mi
12:30 AM61 °FClear.9 mph77%30.18 "Hg10 mi
12:00 AM63 °FClear.7 mph77%30.18 "Hg10 mi
11:30 PM
Oct 30
63 °FClear.8 mph77%30.18 "Hg10 mi
11:00 PM63 °FClear.7 mph77%30.18 "Hg10 mi
10:30 PM63 °FClear.6 mph83%30.18 "Hg10 mi
10:00 PM63 °FClear.5 mph83%30.18 "Hg10 mi
9:30 PM61 °FClear.6 mph83%30.15 "Hg10 mi
9:00 PM59 °FClear.3 mph88%30.15 "Hg10 mi
8:30 PM64 °FClear.1 mph78%30.15 "Hg10 mi
8:00 PM66 °FClear.1 mph73%30.15 "Hg10 mi
7:30 PM66 °FClear.No wind73%30.15 "Hg10 mi
7:00 PM68 °FClear.No wind69%30.12 "Hg10 mi
6:30 PM68 °FClear.1 mph69%30.12 "Hg10 mi
6:00 PM70 °FSunny.1 mph64%30.12 "Hg10 mi
5:30 PM70 °FSunny.2 mph69%30.12 "Hg10 mi
5:00 PM72 °FPassing clouds.3 mph61%30.12 "HgN/A
Weather by CustomWeather, © 2014

See weather overviewHow to use our weather pages